Location: Unnamed
(45.7828°N, 108.5339°W)
Time: 20:05:53
(UTC-06:00)

ISS - Pass Details

Date: 28 June 2021
Orbit: 419 x 421 km, 51.6° (Epoch: 02 August)

Event Time Altitude Azimuth Distance (km) Brightness Sun altitude
Exits shadow 04:47:50 - 219° (SW) 1,665 -1.4 -6.1°
Reaches altitude 10° 04:48:15 10° 217° (SW) 1,495 -1.6 -6.0°
Maximum altitude 04:51:28 44° 144° (SE) 591 -3.0 -5.6°
Drops below altitude 10° 04:54:42 10° 71° (ENE) 1,502 0.4 -5.2°
Sets 04:56:51 0° 65° (ENE) 2,369 1.9 -4.9°
